Location: Foligno
(42.9600°N, 12.7050°E)
Time: 19:47:39
(UTC+02:00)

ISS - Pass Details

Date: 25 May 2018
Orbit: 402 x 407 km, 51.6° (Epoch: 27 May)

Event Time Altitude Azimuth Distance (km) Brightness Sun altitude
Rises 21:58:44 0° 267° (W) 2,316 0.7 -12.8°
Reaches altitude 10° 22:01:01 10° 280° (W) 1,457 -0.2 -13.1°
Maximum altitude 22:03:51 27° 341° (NNW) 816 -1.5 -13.5°
Drops below altitude 10° 22:06:42 10° 42° (NE) 1,459 -0.9 -13.8°
Sets 22:08:59 0° 55° (NE) 2,320 -0.1 -14.1°
